FW1394 Weather Reports


Display with metric or nautical units.
time (UTC)temp
F
wind
direction
speed
MPH
gust
MPH
rain 1hr
in
rain 24hr
in
rain mn
in
humidity
%
barometer
mb
20260507191041 66 0 0.0 0.0 0.00 0.00 0.00 58 1019.9
20260507190539 65 0 0.0 0.0 0.00 0.00 0.00 63 1019.8
20260507190051 64 0 0.0 0.0 0.00 0.00 0.00 65 1019.8
20260507185541 63 0 0.0 0.0 0.00 0.00 0.00 64 1019.9
20260507185041 62 0 0.0 0.0 0.00 0.00 0.00 64 1019.9
20260507184551 62 0 0.0 0.0 0.00 0.00 0.00 63 1020.1
20260507184042 62 0 0.0 0.0 0.00 0.00 0.00 64 1020.1
20260507183545 62 0 0.0 0.0 0.00 0.00 0.00 63 1020.2
20260507183054 62 0 0.0 0.0 0.00 0.00 0.00 65 1020.2
20260507182542 61 0 0.0 0.0 0.00 0.00 0.00 66 1020.2
20260507182042 61 0 0.0 0.0 0.00 0.00 0.00 66 1020.3
20260507181550 60 0 0.0 0.0 0.00 0.00 0.00 66 1020.2
20260507181039 60 0 0.0 0.0 0.00 0.00 0.00 68 1020.3
20260507180540 60 0 0.0 0.0 0.00 0.00 0.00 67 1020.3
20260507180053 60 0 0.0 0.0 0.00 0.00 0.00 68 1020.2
20260507175541 60 0 0.0 0.0 0.00 0.00 0.00 67 1020.4
20260507175042 60 0 0.0 0.0 0.00 0.00 0.00 68 1020.4
20260507174605 60 0 0.0 0.0 0.00 0.00 0.00 67 1020.4
20260507174042 60 0 0.0 0.0 0.00 0.00 0.00 66 1020.4
20260507173543 60 0 0.0 0.0 0.00 0.00 0.00 66 1020.3
20260507173102 60 0 0.0 0.0 0.00 0.00 0.00 66 1020.3
20260507172544 60 0 0.0 0.0 0.00 0.00 0.00 66 1020.3
20260507172045 60 0 0.0 0.0 0.00 0.00 0.00 67 1020.2
20260507171602 60 0 0.0 0.0 0.00 0.00 0.00 66 1020.2
20260507171041 60 0 0.0 0.0 0.00 0.00 0.00 67 1020.2
20260507170542 59 0 0.0 0.0 0.00 0.00 0.00 70 1020.2
20260507170053 59 0 0.0 0.0 0.00 0.00 0.00 69 1020.2
20260507165542 59 0 0.0 0.0 0.00 0.00 0.00 69 1020.2
20260507165041 59 0 0.0 0.0 0.00 0.00 0.00 69 1020.2
20260507164551 59 0 0.0 0.0 0.00 0.00 0.00 69 1020.2
20260507164042 58 0 0.0 0.0 0.00 0.00 0.00 70 1020.2
20260507163542 58 0 0.0 0.0 0.00 0.00 0.00 71 1020.2
20260507163110 58 0 0.0 0.0 0.00 0.00 0.00 70 1020.2
20260507162541 58 0 0.0 0.0 0.00 0.00 0.00 70 1020.1
20260507162042 57 0 0.0 0.0 0.00 0.00 0.00 72 1020.1
20260507161554 57 0 0.0 0.0 0.00 0.00 0.00 73 1020.1
20260507161040 56 0 0.0 0.0 0.00 0.00 0.00 74 1020.1
20260507160541 56 0 0.0 0.0 0.00 0.00 0.00 72 1020.2
20260507160055 56 0 0.0 0.0 0.00 0.00 0.00 73 1020.3
20260507155540 56 0 0.0 0.0 0.00 0.00 0.00 73 1020.3
20260507155040 56 0 0.0 0.0 0.00 0.00 0.00 74 1020.3
20260507154553 56 0 0.0 0.0 0.00 0.00 0.00 74 1020.2
20260507154041 55 0 0.0 0.0 0.00 0.00 0.00 76 1020.3
20260507153540 55 0 0.0 0.0 0.00 0.00 0.00 78 1020.3
20260507153051 54 0 0.0 0.0 0.00 0.00 0.00 81 1020.3
20260507152541 53 0 0.0 0.0 0.00 0.00 0.00 83 1020.4
20260507152041 52 0 0.0 0.0 0.00 0.00 0.00 83 1020.4
20260507151549 52 0 0.0 0.0 0.00 0.00 0.00 83 1020.3
20260507151041 52 0 0.0 0.0 0.00 0.00 0.00 83 1020.4
20260507150541 51 0 0.0 0.0 0.00 0.00 0.00 83 1020.4
20260507150055 51 0 0.0 0.0 0.00 0.00 0.00 83 1020.5
20260507145540 51 0 0.0 0.0 0.00 0.00 0.00 83 1020.5
20260507145040 51 0 0.0 0.0 0.00 0.00 0.00 84 1020.5
20260507144614 51 0 0.0 0.0 0.00 0.00 0.00 84 1020.4
20260507144041 50 0 0.0 0.0 0.00 0.00 0.00 85 1020.4
20260507143541 50 0 0.0 0.0 0.00 0.00 0.00 86 1020.3
20260507143049 50 0 0.0 0.0 0.00 0.00 0.00 86 1020.3
20260507142540 50 0 0.0 0.0 0.00 0.00 0.00 86 1020.3
20260507142041 49 0 0.0 0.0 0.00 0.00 0.00 86 1020.2
20260507141610 49 0 0.0 0.0 0.00 0.00 0.00 87 1020.3
20260507141040 49 0 0.0 0.0 0.00 0.00 0.00 87 1020.4
20260507140541 49 0 0.0 0.0 0.00 0.00 0.00 88 1020.3
20260507140051 49 0 0.0 0.0 0.00 0.00 0.00 87 1020.2
20260507135541 48 0 0.0 0.0 0.00 0.00 0.00 87 1020.2
20260507135044 48 0 0.0 0.0 0.00 0.00 0.00 87 1020.2
20260507134553 48 0 0.0 0.0 0.00 0.00 0.00 88 1020.1
20260507134042 48 0 0.0 0.0 0.00 0.00 0.00 87 1020.0
20260507133541 48 0 0.0 0.0 0.00 0.00 0.00 87 1020.0
20260507133051 48 0 0.0 0.0 0.00 0.00 0.00 87 1019.9
20260507132540 48 0 0.0 0.0 0.00 0.00 0.00 87 1020.0
20260507132040 48 0 0.0 0.0 0.00 0.00 0.00 86 1019.9
20260507131557 48 0 0.0 0.0 0.00 0.00 0.00 86 1019.8
20260507131041 48 0 0.0 0.0 0.00 0.00 0.00 86 1019.8
20260507130540 48 0 0.0 0.0 0.00 0.00 0.00 86 1020.0
20260507130104 48 0 0.0 0.0 0.00 0.00 0.00 86 1020.1
20260507125542 48 0 0.0 0.0 0.00 0.00 0.00 86 1020.1
20260507125040 48 0 0.0 0.0 0.00 0.00 0.00 86 1020.1
20260507124556 48 0 0.0 0.0 0.00 0.00 0.00 86 1020.2
20260507124040 48 0 0.0 0.0 0.00 0.00 0.00 85 1020.2
20260507123541 48 0 0.0 0.0 0.00 0.00 0.00 85 1020.2
20260507123050 49 0 0.0 0.0 0.00 0.00 0.00 85 1020.1
20260507122540 49 0 0.0 0.0 0.00 0.00 0.00 85 1020.2
20260507122041 49 0 0.0 0.0 0.00 0.00 0.00 85 1020.2
20260507121551 49 0 0.0 0.0 0.00 0.00 0.00 86 1020.1
20260507121041 49 0 0.0 0.0 0.00 0.00 0.00 86 1020.2
20260507120541 49 0 0.0 0.0 0.00 0.00 0.00 86 1020.3
20260507120054 49 0 0.0 0.0 0.00 0.00 0.00 86 1020.3
20260507115541 49 0 0.0 0.0 0.00 0.00 0.00 86 1020.4
20260507115041 49 0 0.0 0.0 0.00 0.00 0.00 86 1020.6
20260507114547 49 0 0.0 0.0 0.00 0.00 0.00 86 1020.6
20260507114044 49 0 0.0 0.0 0.00 0.00 0.00 85 1020.5
20260507113541 49 0 0.0 0.0 0.00 0.00 0.00 85 1020.6
20260507113051 49 0 0.0 0.0 0.00 0.00 0.00 85 1020.6
20260507112541 49 0 0.0 0.0 0.00 0.00 0.00 85 1020.6
20260507112041 49 0 0.0 0.0 0.00 0.00 0.00 84 1020.6
20260507111551 49 0 0.0 0.0 0.00 0.00 0.00 84 1020.6
20260507111045 49 0 0.0 0.0 0.00 0.00 0.00 84 1020.5
20260507110540 49 0 0.0 0.0 0.00 0.00 0.00 84 1020.4
20260507110054 49 0 0.0 0.0 0.00 0.00 0.00 84 1020.5
20260507105542 49 0 0.0 0.0 0.00 0.00 0.00 84 1020.4
20260507105044 50 0 0.0 0.0 0.00 0.00 0.00 84 1020.4
20260507104555 50 0 0.0 0.0 0.00 0.00 0.00 84 1020.5
20260507104045 50 0 0.0 0.0 0.00 0.00 0.00 84 1020.5
20260507103540 50 0 0.0 0.0 0.00 0.00 0.00 84 1020.6
20260507103045 50 0 0.0 0.0 0.00 0.00 0.00 84 1020.6
20260507102541 50 0 0.0 0.0 0.00 0.00 0.00 84 1020.7
20260507102045 50 0 0.0 0.0 0.00 0.00 0.00 83 1020.7
20260507101551 50 0 0.0 0.0 0.00 0.00 0.00 83 1020.7
20260507101043 50 0 0.0 0.0 0.00 0.00 0.00 83 1020.6
20260507100540 50 0 0.0 0.0 0.00 0.00 0.00 83 1020.6
20260507100047 50 0 0.0 0.0 0.00 0.00 0.00 83 1020.5
20260507095542 50 0 0.0 0.0 0.00 0.00 0.00 82 1020.5
20260507095044 51 0 0.0 0.0 0.00 0.00 0.00 82 1020.5
20260507094552 51 0 0.0 0.0 0.00 0.00 0.00 82 1020.4
20260507094041 51 0 0.0 0.0 0.00 0.00 0.00 82 1020.4
20260507093541 51 0 0.0 0.0 0.00 0.00 0.00 82 1020.3
20260507093058 51 0 0.0 0.0 0.00 0.00 0.00 81 1020.4
20260507092542 51 0 0.0 0.0 0.00 0.00 0.00 82 1020.5
20260507092043 51 0 0.0 0.0 0.00 0.00 0.00 81 1020.5
20260507091559 51 0 0.0 0.0 0.00 0.00 0.00 81 1020.6
20260507091042 51 0 0.0 0.0 0.00 0.00 0.00 81 1020.6
20260507090541 51 0 0.0 0.0 0.00 0.00 0.00 81 1020.5
20260507090046 51 0 0.0 0.0 0.00 0.00 0.00 81 1020.6
20260507085542 51 0 0.0 0.0 0.00 0.00 0.00 81 1020.5
20260507085047 51 0 0.0 0.0 0.00 0.00 0.00 81 1020.4
20260507084553 52 0 0.0 0.0 0.00 0.00 0.00 81 1020.4
20260507084041 52 0 0.0 0.0 0.00 0.00 0.00 81 1020.4
20260507083543 52 0 0.0 0.0 0.00 0.00 0.00 81 1020.4
20260507083052 52 0 0.0 0.0 0.00 0.00 0.00 81 1020.4
20260507082544 52 0 0.0 0.0 0.00 0.00 0.00 82 1020.4
20260507082041 52 0 0.0 0.0 0.00 0.00 0.00 82 1020.4
20260507081550 52 0 0.0 0.0 0.00 0.00 0.00 83 1020.3
20260507081041 52 0 0.0 0.0 0.00 0.00 0.00 83 1020.3
20260507080543 51 0 0.0 0.0 0.00 0.00 0.00 83 1020.3
20260507080050 52 0 0.0 0.0 0.00 0.00 0.00 82 1020.3
20260507075542 52 0 0.0 0.0 0.00 0.00 0.00 82 1020.3
20260507075045 52 0 0.0 0.0 0.00 0.00 0.00 82 1020.3
20260507074549 52 0 0.0 0.0 0.00 0.00 0.00 82 1020.3
20260507074042 52 0 0.0 0.0 0.00 0.00 0.00 82 1020.4
20260507073543 52 0 0.0 0.0 0.00 0.00 0.00 82 1020.4
20260507073101 52 0 0.0 0.0 0.00 0.00 0.00 82 1020.4
20260507072542 52 0 0.0 0.0 0.00 0.00 0.00 82 1020.3
20260507072045 52 0 0.0 0.0 0.00 0.00 0.00 82 1020.2
20260507071613 52 0 0.0 0.0 0.00 0.00 0.00 82 1020.3
20260507071042 52 0 0.0 0.0 0.00 0.00 0.00 82 1020.3
20260507070542 52 0 0.0 0.0 0.00 0.00 0.00 82 1020.2
20260507070058 52 0 0.0 0.0 0.00 0.00 0.00 82 1020.3
20260507065544 52 0 0.0 0.0 0.00 0.00 0.00 82 1020.3
20260507065041 52 0 0.0 0.0 0.00 0.00 0.00 82 1020.2
20260507064557 52 0 0.0 0.0 0.00 0.00 0.00 81 1020.2
20260507064042 52 0 0.0 0.0 0.00 0.00 0.00 81 1020.2
20260507063545 52 0 0.0 0.0 0.00 0.00 0.00 81 1020.1
20260507063056 52 0 0.0 0.0 0.00 0.00 0.00 81 1020.1
20260507062541 52 0 0.0 0.0 0.00 0.00 0.00 80 1020.0
20260507062041 52 0 0.0 0.0 0.00 0.00 0.00 80 1019.9
20260507061603 52 0 0.0 0.0 0.00 0.00 0.00 80 1019.9
20260507061042 52 0 0.0 0.0 0.00 0.00 0.00 80 1019.7
20260507060541 52 0 0.0 0.0 0.00 0.00 0.00 80 1019.7
20260507060058 52 0 0.0 0.0 0.00 0.00 0.00 80 1019.6
20260507055541 53 0 0.0 0.0 0.00 0.00 0.00 81 1019.5
20260507055041 53 0 0.0 0.0 0.00 0.00 0.00 80 1019.5
20260507054602 53 0 0.0 0.0 0.00 0.00 0.00 80 1019.5
20260507054042 53 0 0.0 0.0 0.00 0.00 0.00 81 1019.5
20260507053542 53 0 0.0 0.0 0.00 0.00 0.00 81 1019.7
20260507053058 53 0 0.0 0.0 0.00 0.00 0.00 80 1019.8
20260507052542 53 0 0.0 0.0 0.00 0.00 0.00 80 1019.7
20260507052042 53 0 0.0 0.0 0.00 0.00 0.00 80 1019.8
20260507051548 53 0 0.0 0.0 0.00 0.00 0.00 80 1019.8
20260507051041 53 0 0.0 0.0 0.00 0.00 0.00 79 1019.7
20260507050541 54 0 0.0 0.0 0.00 0.00 0.00 79 1019.8
20260507050055 54 0 0.0 0.0 0.00 0.00 0.00 79 1019.8
20260507045541 54 0 0.0 0.0 0.00 0.00 0.00 80 1019.8
20260507045041 54 0 0.0 0.0 0.00 0.00 0.00 80 1019.9
20260507044600 53 0 0.0 0.0 0.00 0.00 0.00 81 1019.7
20260507044041 53 0 0.0 0.0 0.00 0.00 0.00 81 1019.7
20260507043540 53 0 0.0 0.0 0.00 0.00 0.00 81 1019.9
20260507043056 53 0 0.0 0.0 0.00 0.00 0.00 81 1019.8
20260507042542 53 0 0.0 0.0 0.00 0.00 0.00 81 1020.0
20260507042044 53 0 0.0 0.0 0.00 0.00 0.00 81 1019.8
20260507041559 53 0 0.0 0.0 0.00 0.00 0.00 81 1019.9
20260507041042 53 0 0.0 0.0 0.00 0.00 0.00 81 1019.8
20260507040543 53 0 0.0 0.0 0.00 0.00 0.00 81 1019.7
20260507040049 53 0 0.0 0.0 0.00 0.00 0.00 81 1019.7
20260507035541 53 0 0.0 0.0 0.00 0.00 0.00 81 1019.8
20260507035042 54 0 0.0 0.0 0.00 0.00 0.00 81 1019.7
20260507034600 54 0 0.0 0.0 0.00 0.00 0.00 81 1019.7
20260507034041 54 0 0.0 0.0 0.00 0.00 0.00 80 1019.8
20260507033541 54 0 0.0 0.0 0.00 0.00 0.00 80 1019.8
20260507033054 54 0 0.0 0.0 0.00 0.00 0.00 80 1019.8
20260507032542 54 0 0.0 0.0 0.00 0.00 0.00 79 1019.7
20260507032041 54 0 0.0 0.0 0.00 0.00 0.00 79 1019.9
20260507031553 54 0 0.0 0.0 0.00 0.00 0.00 79 1019.8
20260507031041 54 0 0.0 0.0 0.00 0.00 0.00 79 1019.8
20260507030543 54 0 0.0 0.0 0.00 0.00 0.00 79 1019.7
20260507030059 54 0 0.0 0.0 0.00 0.00 0.00 79 1019.7
20260507025544 55 0 0.0 0.0 0.00 0.00 0.00 78 1019.8
20260507025042 55 0 0.0 0.0 0.00 0.00 0.00 79 1019.8
20260507024555 55 0 0.0 0.0 0.00 0.00 0.00 79 1019.8
20260507024041 55 0 0.0 0.0 0.00 0.00 0.00 79 1019.8
20260507023540 55 0 0.0 0.0 0.00 0.00 0.00 78 1019.8
20260507023051 55 0 0.0 0.0 0.00 0.00 0.00 78 1019.8
20260507022541 55 0 0.0 0.0 0.00 0.00 0.00 78 1019.8
20260507022042 55 0 0.0 0.0 0.00 0.00 0.00 78 1019.8
20260507021551 55 0 0.0 0.0 0.00 0.00 0.00 77 1019.7
20260507021042 55 0 0.0 0.0 0.00 0.00 0.00 78 1019.7
20260507020541 55 0 0.0 0.0 0.00 0.00 0.00 77 1019.8
20260507020051 55 0 0.0 0.0 0.00 0.00 0.00 77 1019.8
20260507015541 55 0 0.0 0.0 0.00 0.00 0.00 77 1019.8
20260507015041 56 0 0.0 0.0 0.00 0.00 0.00 77 1019.8
20260507014553 56 0 0.0 0.0 0.00 0.00 0.00 76 1019.8
20260507014041 56 0 0.0 0.0 0.00 0.00 0.00 77 1019.7
20260507013541 56 0 0.0 0.0 0.00 0.00 0.00 76 1019.7
20260507013100 56 0 0.0 0.0 0.00 0.00 0.00 76 1019.7
20260507012540 56 0 0.0 0.0 0.00 0.00 0.00 76 1019.7
20260507012041 56 0 0.0 0.0 0.00 0.00 0.00 75 1019.6
20260507011555 56 0 0.0 0.0 0.00 0.00 0.00 74 1019.6
20260507011042 57 0 0.0 0.0 0.00 0.00 0.00 74 1019.8
20260507010540 57 0 0.0 0.0 0.00 0.00 0.00 74 1019.8
20260507010126 57 0 0.0 0.0 0.00 0.00 0.00 74 1019.8
20260507005540 57 0 0.0 0.0 0.00 0.00 0.00 73 1019.8
20260507005043 57 0 0.0 0.0 0.00 0.00 0.00 73 1019.8
20260507004550 58 0 0.0 0.0 0.00 0.00 0.00 73 1019.8
20260507004041 58 0 0.0 0.0 0.00 0.00 0.00 73 1019.8
20260507003542 58 0 0.0 0.0 0.00 0.00 0.00 73 1019.8
20260507003047 58 0 0.0 0.0 0.00 0.00 0.00 72 1019.8
20260507002544 58 0 0.0 0.0 0.00 0.00 0.00 72 1019.8
20260507002041 58 0 0.0 0.0 0.00 0.00 0.00 72 1019.7
20260507001548 58 0 0.0 0.0 0.00 0.00 0.00 72 1019.8
20260507001040 58 0 0.0 0.0 0.00 0.00 0.00 71 1019.8
20260507000544 58 0 0.0 0.0 0.00 0.00 0.00 71 1019.8
20260507000053 58 0 0.0 0.0 0.00 0.00 0.00 70 1019.8
20260506235541 59 0 0.0 0.0 0.00 0.00 0.00 70 1019.8
20260506235043 59 0 0.0 0.0 0.00 0.00 0.00 70 1019.8
20260506234555 59 0 0.0 0.0 0.00 0.00 0.00 71 1019.7
20260506234046 59 0 0.0 0.0 0.00 0.00 0.00 70 1019.8
20260506233542 59 0 0.0 0.0 0.00 0.00 0.00 69 1019.7
20260506233052 59 0 0.0 0.0 0.00 0.00 0.00 69 1019.9
20260506232542 59 0 0.0 0.0 0.00 0.00 0.00 69 1019.8
20260506232040 59 0 0.0 0.0 0.00 0.00 0.00 69 1019.8
20260506231551 59 0 0.0 0.0 0.00 0.00 0.00 69 1019.8
20260506231041 59 0 0.0 0.0 0.00 0.00 0.00 69 1019.8
20260506230540 59 0 0.0 0.0 0.00 0.00 0.00 69 1019.8
20260506230055 59 0 0.0 0.0 0.00 0.00 0.00 68 1019.8
20260506225541 59 0 0.0 0.0 0.00 0.00 0.00 68 1019.9
20260506225041 59 0 0.0 0.0 0.00 0.00 0.00 68 1019.9
20260506224602 59 0 0.0 0.0 0.00 0.00 0.00 68 1019.9
20260506224042 59 0 0.0 0.0 0.00 0.00 0.00 68 1019.9
20260506223540 59 0 0.0 0.0 0.00 0.00 0.00 67 1020.0
20260506223051 60 0 0.0 0.0 0.00 0.00 0.00 67 1020.0
20260506222540 60 0 0.0 0.0 0.00 0.00 0.00 66 1020.0
20260506222040 60 0 0.0 0.0 0.00 0.00 0.00 66 1020.0
20260506221554 60 0 0.0 0.0 0.00 0.00 0.00 66 1020.0
20260506221041 61 0 0.0 0.0 0.00 0.00 0.00 66 1020.0
20260506220541 61 0 0.0 0.0 0.00 0.00 0.00 66 1019.9
20260506220052 61 0 0.0 0.0 0.00 0.00 0.00 66 1020.0
20260506215542 61 0 0.0 0.0 0.00 0.00 0.00 65 1020.0
20260506215041 61 0 0.0 0.0 0.00 0.00 0.00 66 1019.8
20260506214606 61 0 0.0 0.0 0.00 0.00 0.00 66 1019.9
20260506214041 61 0 0.0 0.0 0.00 0.00 0.00 65 1020.0
20260506213543 62 0 0.0 0.0 0.00 0.00 0.00 64 1020.0
20260506213050 62 0 0.0 0.0 0.00 0.00 0.00 66 1020.0
20260506212541 62 0 0.0 0.0 0.00 0.00 0.00 67 1020.0
20260506212041 61 0 0.0 0.0 0.00 0.00 0.00 68 1020.0
20260506211546 61 0 0.0 0.0 0.00 0.00 0.00 67 1020.0
20260506211041 61 0 0.0 0.0 0.00 0.00 0.00 69 1020.0
20260506210541 60 0 0.0 0.0 0.00 0.00 0.00 68 1020.0
20260506210053 60 0 0.0 0.0 0.00 0.00 0.00 68 1020.0
20260506205540 60 0 0.0 0.0 0.00 0.00 0.00 69 1020.0
20260506205040 59 0 0.0 0.0 0.00 0.00 0.00 71 1020.1
20260506204559 58 0 0.0 0.0 0.00 0.00 0.00 73 1020.0
20260506204040 57 0 0.0 0.0 0.00 0.00 0.00 74 1019.9
20260506203541 57 0 0.0 0.0 0.00 0.00 0.00 75 1020.0
20260506203052 56 0 0.0 0.0 0.00 0.00 0.00 74 1020.1
20260506202540 56 0 0.0 0.0 0.00 0.00 0.00 75 1020.1
20260506202040 56 0 0.0 0.0 0.00 0.00 0.00 76 1020.2
20260506201552 56 0 0.0 0.0 0.00 0.00 0.00 76 1020.0
20260506201040 55 0 0.0 0.0 0.00 0.00 0.00 77 1020.1
20260506200544 55 0 0.0 0.0 0.00 0.00 0.00 77 1020.0
20260506200048 55 0 0.0 0.0 0.00 0.00 0.00 77 1019.9
20260506195541 55 0 0.0 0.0 0.00 0.00 0.00 78 1019.9
20260506195044 55 0 0.0 0.0 0.00 0.00 0.00 78 1019.9
20260506194603 55 0 0.0 0.0 0.00 0.00 0.00 78 1019.9
20260506194046 55 0 0.0 0.0 0.00 0.00 0.00 78 1019.8
20260506193541 55 0 0.0 0.0 0.00 0.00 0.00 78 1019.9
20260506193046 54 0 0.0 0.0 0.00 0.00 0.00 80 1019.8
20260506192540 54 0 0.0 0.0 0.00 0.00 0.00 79 1019.8
20260506192041 54 0 0.0 0.0 0.00 0.00 0.00 80 1019.8
20260506191552 54 0 0.0 0.0 0.00 0.00 0.00 80 1019.7